FENGYUN 1C DEB, 31715

Orbit data source: Space-Track

FENGYUN 1C DEB, 31715 is space debris in SSO originally from a launch on Mon, 10 May 1999 UTC launched from the Taiyaun Space Center, China (TSC). Fengyun 1C debris stems from the Chinese weather satellite Fengyun-1C, which was intentionally destroyed by a Chinese anti-satellite missile in 2007. This event dramatically increased the amount of space debris, with thousands of trackable fragments posing hazards to satellites and human spaceflight. The Fengyun 1C debris cloud has become a focal point in discussions about space sustainability and the need for international regulations to prevent the creation of new debris.

Loading next visibility...
Identifier
31715, 1999-025CDN
Orbit
SSO
Country
Flag of CNCN / PRC
Related business
Manufacturer
Unknown
Mission
Spacecraft
Bus & Motor
Unknown
Mass
Unknown
Launch date (UTC)
1999-05-10 (27 years ago)
Launch vehicle
Unknown
Launch site
Taiyaun Space Center, China (TSC)
Object type
Payload
Rocket body
Debris
Shape & HBR
Unknown shape, 0.1 m
Radar Cross Section
Small (<0.1 m²)

Expand to show TLE details & history
Last TLE update: 9 hours ago

TLE from 9 hours ago
0 FENGYUN 1C DEB
1 31715U 99025CDN 25341.79382745  .00008571  00000-0  16938-2 0  9992
2 31715  99.2933 170.0847 0187127 134.2132 227.4603 14.52094814616457
Epoch: 2025-12-07T19:03Z
TLE epoch observation values (Epoch: 2025-12-07T19:03:06.691Z)
Latitude
-0.00005°
Longitude
167.50472°
Altitude
812.887 km
Speed
7.399 km/s
True Right ascension
11h 20m 20s
True Declination
0° 00' 00"
Sunlit
Object was in daylight at epoch
Visualization orbit readout
Latitude
Unknown
Longitude
Unknown
Altitude
Unknown
Speed
Unknown
Apparent Right ascension
Unknown
Apparent Declination
Unknown
Sunlit
N/A
Visualization observer readout
Local Sidereal Time
02:27:01
Azimuth
Unknown
Elevation
Unknown
Doppler factor
Unknown
Orbital elements
Apogee altitude
848.708 km
Perigee altitude
583.209 km
Semi-major axis
7,094.095 km
Eccentricity
0.01871
Inclination
99.2933°
RAAN
170.0847°
Arg. of periapsis
134.2132°
True anomaly
225.90515°
Mean anomaly
227.4603°
Eccentric anomaly
226.68027°
Mean motion
3.63243 °/min
Orbital period
99.11 mins
BSTAR
0.0016938
Loading maneuver chart data...
Computing Atmospheric mass density...

Documentation

Showing up to 5 results
|